timestamp,wind_dir_avg,wind_spd_avg,wind_spd_max_dir,wind_spd_gust,battery_voltage,lat,long
2021-05-20 00:04:01+00:00,225.0,4.82,226.0,6.03,13.21,47.59359,-54.27349
2021-05-20 00:14:01+00:00,232.0,5.02,231.0,5.51,12.73,47.59359,-54.27349
2021-05-20 00:24:01+00:00,235.0,4.21,234.0,4.8,12.73,47.59359,-54.27349
2021-05-20 00:34:01+00:00,238.0,4.13,240.0,4.6,12.73,47.59359,-54.27349
2021-05-20 00:44:01+00:00,234.0,3.92,234.0,4.84,12.73,47.59359,-54.27349
2021-05-20 00:54:01+00:00,235.0,4.21,230.0,4.65,12.73,47.59359,-54.27349
2021-05-20 01:04:01+00:00,234.0,3.87,234.0,4.67,12.73,47.59359,-54.27349
2021-05-20 01:14:01+00:00,236.0,3.41,237.0,3.69,12.57,47.59359,-54.27349
2021-05-20 01:24:01+00:00,230.0,2.94,238.0,3.47,12.57,47.59359,-54.27349
2021-05-20 01:34:01+00:00,220.0,2.8,226.0,3.25,12.57,47.59359,-54.27349
2021-05-20 01:44:01+00:00,223.0,2.41,223.0,2.95,12.57,47.59359,-54.27349
2021-05-20 01:54:01+00:00,232.0,2.34,239.0,2.72,12.57,47.59359,-54.27349
2021-05-20 02:04:01+00:00,235.0,2.81,241.0,3.25,12.57,47.59359,-54.27349
2021-05-20 02:14:01+00:00,244.0,2.83,249.0,3.33,12.57,47.59359,-54.27349
2021-05-20 02:24:01+00:00,243.0,2.48,247.0,2.75,12.57,47.59359,-54.27349
2021-05-20 02:34:01+00:00,244.0,2.77,245.0,3.2,12.57,47.59359,-54.27349
2021-05-20 02:44:01+00:00,241.0,2.6,243.0,3.04,12.57,47.59359,-54.27349
2021-05-20 02:54:01+00:00,243.0,2.08,245.0,2.26,12.57,47.59359,-54.27349
2021-05-20 03:04:01+00:00,238.0,2.21,240.0,2.41,12.57,47.59359,-54.27349
2021-05-20 03:14:00+00:00,248.0,1.67,248.0,1.89,12.57,47.59359,-54.27349
2021-05-20 03:24:00+00:00,249.0,1.31,249.0,1.44,12.57,47.59359,-54.27349
2021-05-20 03:34:00+00:00,236.0,1.26,241.0,1.57,12.57,47.59359,-54.27349
2021-05-20 03:44:00+00:00,235.0,2.49,238.0,2.95,12.57,47.59359,-54.27349
2021-05-20 03:54:00+00:00,242.0,1.99,244.0,2.52,12.57,47.59359,-54.27349
2021-05-20 04:04:00+00:00,229.0,2.34,225.0,2.77,12.57,47.59359,-54.27349
2021-05-20 04:14:00+00:00,234.0,2.58,237.0,2.98,12.49,47.59359,-54.27349
2021-05-20 04:24:00+00:00,234.0,3.06,237.0,3.66,12.49,47.59359,-54.27349
2021-05-20 04:34:00+00:00,255.0,3.17,254.0,3.75,12.49,47.59359,-54.27349
2021-05-20 04:44:00+00:00,255.0,3.23,255.0,4.08,12.49,47.59359,-54.27349
2021-05-20 04:54:00+00:00,234.0,2.92,233.0,3.43,12.49,47.59359,-54.27349
2021-05-20 05:04:00+00:00,247.0,2.81,241.0,3.17,12.49,47.59359,-54.27349
2021-05-20 05:14:01+00:00,239.0,2.61,237.0,2.92,12.49,47.59359,-54.27349
2021-05-20 05:24:01+00:00,230.0,3.2,233.0,3.85,12.49,47.59359,-54.27349
2021-05-20 05:34:01+00:00,232.0,3.94,233.0,4.38,12.49,47.59359,-54.27349
2021-05-20 05:44:01+00:00,238.0,3.89,241.0,4.44,12.49,47.59359,-54.27349
2021-05-20 05:54:01+00:00,243.0,3.89,242.0,4.56,12.49,47.59359,-54.27349
2021-05-20 06:04:01+00:00,262.0,3.73,261.0,4.13,12.49,47.59359,-54.27349
2021-05-20 06:14:00+00:00,252.0,3.88,252.0,4.44,12.49,47.59359,-54.27349
2021-05-20 06:24:00+00:00,259.0,3.41,255.0,3.78,12.49,47.59359,-54.27349
2021-05-20 06:34:00+00:00,258.0,3.41,256.0,3.98,12.49,47.59359,-54.27349
2021-05-20 06:44:00+00:00,251.0,3.46,254.0,4.49,12.49,47.59359,-54.27349
2021-05-20 06:54:00+00:00,217.0,3.71,224.0,4.05,12.49,47.59359,-54.27349
2021-05-20 07:04:00+00:00,249.0,3.7,251.0,4.16,12.49,47.59359,-54.27349
2021-05-20 07:14:01+00:00,244.0,3.91,234.0,5.11,12.41,47.59359,-54.27349
2021-05-20 07:24:01+00:00,231.0,3.34,235.0,3.81,12.41,47.59359,-54.27349
2021-05-20 07:34:01+00:00,230.0,3.71,237.0,4.89,12.41,47.59359,-54.27349
2021-05-20 07:44:01+00:00,222.0,3.83,228.0,4.19,12.41,47.59359,-54.27349
2021-05-20 07:54:01+00:00,241.0,3.52,247.0,5.12,12.41,47.59359,-54.27349
2021-05-20 08:04:01+00:00,244.0,2.77,243.0,3.23,12.41,47.59359,-54.27349
2021-05-20 08:14:01+00:00,266.0,3.52,267.0,5.1,12.41,47.59359,-54.27349
2021-05-20 08:24:01+00:00,252.0,2.73,241.0,3.32,12.41,47.59359,-54.27349
2021-05-20 08:34:01+00:00,270.0,2.73,272.0,3.44,12.41,47.59359,-54.27349
2021-05-20 08:44:01+00:00,253.0,2.94,256.0,3.41,12.41,47.59359,-54.27349
2021-05-20 08:54:01+00:00,264.0,2.23,261.0,2.52,12.41,47.59359,-54.27349
2021-05-20 09:04:01+00:00,246.0,2.09,240.0,2.68,12.41,47.59359,-54.27349
2021-05-20 09:14:01+00:00,267.0,3.02,265.0,3.58,12.49,47.59359,-54.27349
2021-05-20 09:24:01+00:00,266.0,2.56,266.0,3.47,12.49,47.59359,-54.27349
2021-05-20 09:34:01+00:00,244.0,1.9,240.0,2.58,12.49,47.59359,-54.27349
2021-05-20 09:44:01+00:00,262.0,2.29,268.0,2.79,12.49,47.59359,-54.27349
2021-05-20 09:54:01+00:00,260.0,2.36,258.0,3.0,12.49,47.59359,-54.27349
2021-05-20 10:04:01+00:00,261.0,2.32,248.0,3.25,12.49,47.59359,-54.27349
2021-05-20 10:14:01+00:00,234.0,2.81,239.0,3.19,13.05,47.59359,-54.27349
2021-05-20 10:24:01+00:00,227.0,2.04,224.0,2.4,13.05,47.59359,-54.27349
2021-05-20 10:34:01+00:00,221.0,3.96,225.0,4.35,13.05,47.59359,-54.27349
2021-05-20 10:44:01+00:00,229.0,2.33,224.0,2.86,13.05,47.59359,-54.27349
2021-05-20 10:54:01+00:00,239.0,3.5,244.0,4.23,13.05,47.59359,-54.27349
2021-05-20 11:04:01+00:00,233.0,2.19,230.0,3.11,13.05,47.59359,-54.27349
2021-05-20 11:14:01+00:00,195.0,1.55,194.0,2.13,13.6,47.59359,-54.27349
2021-05-20 11:24:01+00:00,202.0,1.12,192.0,1.39,13.6,47.59359,-54.27349
2021-05-20 11:34:01+00:00,116.0,0.04,75.0,0.44,13.6,47.59359,-54.27349
2021-05-20 11:44:01+00:00,181.0,1.51,184.0,1.75,13.6,47.59359,-54.27349
2021-05-20 11:54:01+00:00,159.0,0.95,151.0,1.17,13.6,47.59359,-54.27349
2021-05-20 12:04:01+00:00,168.0,1.27,174.0,1.58,13.6,47.59359,-54.27349
2021-05-20 12:14:01+00:00,162.0,1.65,167.0,2.2,13.76,47.59359,-54.27349
2021-05-20 12:24:01+00:00,153.0,0.68,163.0,0.89,13.76,47.59359,-54.27349
2021-05-20 12:34:01+00:00,173.0,1.35,173.0,1.53,13.76,47.59359,-54.27349
2021-05-20 12:44:01+00:00,197.0,1.85,205.0,2.69,13.76,47.59359,-54.27349
2021-05-20 12:54:01+00:00,194.0,1.89,204.0,2.83,13.76,47.59359,-54.27349
2021-05-20 13:04:01+00:00,223.0,2.36,225.0,2.72,13.76,47.59359,-54.27349
2021-05-20 13:14:01+00:00,235.0,2.57,243.0,3.04,14.16,47.59359,-54.27349
2021-05-20 13:24:01+00:00,244.0,2.84,248.0,3.31,14.16,47.59359,-54.27349
2021-05-20 13:34:01+00:00,232.0,3.75,240.0,4.85,14.16,47.59359,-54.27349
2021-05-20 13:44:01+00:00,238.0,4.69,237.0,5.28,14.16,47.59359,-54.27349
2021-05-20 13:54:01+00:00,226.0,4.49,231.0,5.13,14.16,47.59359,-54.27349
2021-05-20 14:04:01+00:00,239.0,4.12,229.0,4.91,14.16,47.59359,-54.27349
2021-05-20 14:14:01+00:00,244.0,4.53,245.0,5.27,14.32,47.59359,-54.27349
2021-05-20 14:24:01+00:00,236.0,3.78,241.0,4.02,14.32,47.59359,-54.27349
2021-05-20 14:34:01+00:00,218.0,4.87,217.0,5.45,14.32,47.59359,-54.27349
2021-05-20 14:44:01+00:00,216.0,5.41,217.0,5.88,14.32,47.59359,-54.27349
2021-05-20 14:54:01+00:00,213.0,5.74,214.0,6.1,14.32,47.59359,-54.27349
2021-05-20 15:04:01+00:00,212.0,5.92,214.0,6.45,14.32,47.59359,-54.27349
2021-05-20 15:14:01+00:00,216.0,5.64,216.0,6.27,14.16,47.59359,-54.27349
2021-05-20 15:24:01+00:00,224.0,5.87,226.0,8.37,14.16,47.59359,-54.27349
2021-05-20 15:34:01+00:00,224.0,7.07,223.0,7.93,14.16,47.59359,-54.27349
2021-05-20 15:44:01+00:00,227.0,6.75,235.0,7.48,14.16,47.59359,-54.27349
2021-05-20 15:54:01+00:00,212.0,5.66,213.0,6.22,14.16,47.59359,-54.27349
2021-05-20 16:04:01+00:00,210.0,5.73,212.0,6.41,14.16,47.59359,-54.27349
2021-05-20 16:14:01+00:00,206.0,5.83,204.0,6.38,14.0,47.59359,-54.27349
2021-05-20 16:24:01+00:00,205.0,6.06,206.0,6.86,14.0,47.59359,-54.27349
2021-05-20 16:34:01+00:00,207.0,5.55,213.0,6.43,14.0,47.59359,-54.27349
2021-05-20 16:44:01+00:00,218.0,5.84,219.0,6.75,14.0,47.59359,-54.27349
2021-05-20 16:54:01+00:00,215.0,6.05,217.0,6.64,14.0,47.59359,-54.27349
2021-05-20 17:04:01+00:00,211.0,7.01,213.0,7.68,14.0,47.59359,-54.27349
2021-05-20 17:14:01+00:00,224.0,7.09,226.0,7.91,14.32,47.59359,-54.27349
2021-05-20 17:24:01+00:00,223.0,6.87,226.0,8.11,14.32,47.59359,-54.27349
2021-05-20 17:34:01+00:00,222.0,7.47,223.0,8.63,14.32,47.59359,-54.27349
2021-05-20 17:44:01+00:00,217.0,7.12,211.0,8.5,14.32,47.59359,-54.27349
2021-05-20 17:54:01+00:00,217.0,7.6,217.0,9.04,14.32,47.59359,-54.27349
2021-05-20 18:04:01+00:00,215.0,7.84,216.0,8.4,14.32,47.59359,-54.27349
2021-05-20 18:14:01+00:00,212.0,9.05,212.0,9.89,13.84,47.59359,-54.27349
2021-05-20 18:24:01+00:00,206.0,8.85,202.0,9.63,13.84,47.59359,-54.27349
2021-05-20 18:34:01+00:00,201.0,9.15,200.0,9.78,13.84,47.59359,-54.27349
2021-05-20 18:44:01+00:00,205.0,8.66,207.0,9.61,13.84,47.59359,-54.27349
2021-05-20 18:54:01+00:00,215.0,8.24,212.0,8.89,13.84,47.59359,-54.27349
2021-05-20 19:04:01+00:00,220.0,8.6,219.0,9.53,13.84,47.59359,-54.27349
2021-05-20 19:14:01+00:00,216.0,7.52,216.0,8.44,13.84,47.59359,-54.27349
2021-05-20 19:24:01+00:00,217.0,7.1,220.0,8.41,13.84,47.59359,-54.27349
2021-05-20 19:34:01+00:00,221.0,6.96,220.0,7.77,13.84,47.59359,-54.27349
2021-05-20 19:44:01+00:00,213.0,6.7,216.0,7.32,13.84,47.59359,-54.27349
2021-05-20 19:54:01+00:00,224.0,8.21,223.0,9.17,13.84,47.59359,-54.27349
2021-05-20 20:04:01+00:00,213.0,8.31,215.0,9.07,13.84,47.59359,-54.27349
2021-05-20 20:14:01+00:00,214.0,6.94,216.0,7.68,13.76,47.59359,-54.27349
2021-05-20 20:24:01+00:00,213.0,7.9,217.0,8.9,13.76,47.59359,-54.27349
2021-05-20 20:34:01+00:00,212.0,8.12,212.0,8.97,13.76,47.59359,-54.27349
2021-05-20 20:44:01+00:00,213.0,8.28,214.0,9.58,13.76,47.59359,-54.27349
2021-05-20 20:54:01+00:00,212.0,7.56,213.0,8.2,13.76,47.59359,-54.27349
2021-05-20 21:04:01+00:00,217.0,7.5,224.0,8.45,13.76,47.59359,-54.27349
2021-05-20 21:14:01+00:00,214.0,7.57,218.0,8.33,13.76,47.59359,-54.27349
2021-05-20 21:24:01+00:00,215.0,8.17,213.0,9.06,13.76,47.59359,-54.27349
2021-05-20 21:34:01+00:00,212.0,8.04,215.0,8.99,13.76,47.59359,-54.27349
2021-05-20 21:44:01+00:00,215.0,6.99,212.0,8.24,13.76,47.59359,-54.27349
2021-05-20 21:54:01+00:00,218.0,7.37,222.0,8.3,13.76,47.59359,-54.27349
2021-05-20 22:04:01+00:00,219.0,6.54,212.0,7.87,13.76,47.59359,-54.27349
2021-05-20 22:14:00+00:00,213.0,7.36,212.0,8.2,13.44,47.59359,-54.27349
2021-05-20 22:24:00+00:00,211.0,7.64,218.0,8.44,13.44,47.59359,-54.27349
2021-05-20 22:34:00+00:00,206.0,7.86,206.0,8.77,13.44,47.59359,-54.27349
2021-05-20 22:44:00+00:00,199.0,6.95,200.0,7.62,13.44,47.59359,-54.27349
2021-05-20 22:54:00+00:00,209.0,7.56,210.0,8.39,13.44,47.59359,-54.27349
2021-05-20 23:04:00+00:00,213.0,7.31,211.0,8.03,13.44,47.59359,-54.27349
2021-05-20 23:14:01+00:00,213.0,7.7,216.0,8.79,12.89,47.59359,-54.27349
2021-05-20 23:24:01+00:00,212.0,8.11,209.0,9.1,12.89,47.59359,-54.27349
2021-05-20 23:34:01+00:00,214.0,8.39,213.0,9.45,12.89,47.59359,-54.27349
2021-05-20 23:44:01+00:00,215.0,8.73,218.0,9.56,12.89,47.59359,-54.27349
2021-05-20 23:54:01+00:00,216.0,7.52,215.0,8.77,12.89,47.59359,-54.27349
